#timestamp,LO_Frequency,Hit,StdDev 
1583720415.5,286046993.7,P
1583720435.3,286046991.7,P
1583720455.2,286046993.9,P
1583720475.0,286046993.4,Y
1583720475.9,286046993.4,P
1583720495.8,286047000.2,N
1583720515.6,286047002.8,N
1583720535.4,286047000.8,N
1583720555.3,286047000.6,N
1583720575.1,286047000.0,N
1583720595.8,286047002.7,N
1583720615.7,286046999.7,N
1583720635.5,286047002.8,N
1583720655.4,286047002.1,N
1583720675.2,286046999.7,N
1583720695.0,286047002.7,N
1583720695.9,286047002.7,N
1583720715.8,286047004.0,N
1583720735.6,286047004.0,N
1583720755.5,286047003.0,N
1583720775.3,286047007.4,N
1583720795.1,286047008.9,N
1583720815.9,286047009.2,N
1583720835.7,286047004.6,N
1583720855.5,286047004.6,N
1583720875.4,286047003.2,N
1583720895.2,286047003.4,N
1583720915.1,286047003.2,N
1583720916.0,286047003.2,N
1583720935.8,286047007.4,N
1583720955.6,286047007.0,N
1583720975.5,286047010.6,N
1583720995.3,286047006.6,N
1583721015.2,286047006.5,N
1583721035.9,286047008.5,N
1583721055.7,286047007.1,N
1583721075.6,286047007.5,N
1583721095.4,286047006.0,N
1583721115.2,286047004.2,N
1583721135.1,286047001.4,N
1583721136.0,286047001.4,N
1583721155.8,286047001.9,N
1583721175.7,286047001.3,N
1583721195.5,286047005.5,N
1583721215.3,286047005.7,N
1583721235.2,286047007.0,N
1583721255.0,286047007.0,N
1583721255.9,286047007.0,N
1583721275.8,286047007.2,N
1583721295.6,286047007.3,N
1583721315.4,286047005.5,N
1583721335.3,286047003.3,N
1583721355.1,286047005.5,N
1583721375.8,286047007.5,Y
1583721395.7,286047000.1,P
1583721415.5,286047000.0,N
1583721435.4,286047000.2,N
1583721455.2,286047002.4,N
1583721475.0,286047000.3,N
1583721475.9,286047000.3,N
1583721495.8,286047001.2,N
1583721515.6,286046999.6,N
1583721535.5,286046999.0,N
1583721555.3,286046999.3,N
1583721575.1,286047000.2,N
1583721595.9,286046999.8,N
1583721615.7,286047004.4,N
1583721635.5,286047002.6,N
1583721655.4,286046999.7,N
1583721675.2,286047002.4,N
1583721695.1,286047000.2,N
1583721696.0,286047000.2,N
1583721715.8,286047000.5,N
1583721735.6,286047002.6,N
1583721755.5,286047003.8,N
1583721775.3,286047006.0,Y
1583721795.1,286047001.4,P
1583721815.9,286047003.8,P
1583721835.7,286047001.5,N
1583721855.6,286046999.9,N
1583721875.4,286047000.2,N
1583721895.2,286047001.7,N
1583721915.1,286047004.0,Y
1583721916.0,286047004.0,P
1583721935.8,286047001.9,N
1583721955.6,286047004.1,P
1583721975.5,286047001.8,N
1583721995.3,286047002.2,N
1583722015.2,286047000.4,N
1583722035.9,286047000.6,N
1583722055.7,286046999.6,N
1583722075.6,286046999.2,N
1583722095.4,286046998.3,N
1583722115.2,286046998.1,N
1583722135.1,286047000.7,N
1583722136.0,286047000.7,N
1583722155.8,286047000.9,N
1583722175.7,286046999.7,N
1583722195.5,286047000.2,N
1583722215.3,286047001.8,N
1583722235.2,286047001.6,N
1583722255.0,286047002.4,N
1583722255.9,286047002.4,N
1583722275.8,286047000.6,N
1583722295.6,286046998.1,N
1583722315.4,286046999.2,N
1583722335.3,286047000.5,N
1583722355.1,286047002.1,N
1583722375.8,286047004.4,N
1583722395.7,286047004.0,N
1583722415.5,286047003.1,N
1583722435.4,286047001.3,N
1583722455.2,286047002.1,N
1583722475.0,286047002.2,N
1583722475.9,286047002.2,N
1583722495.8,286046999.7,N
1583722515.6,286047002.5,N
1583722535.4,286047001.4,N
1583722555.3,286047004.0,N
1583722575.1,286047004.4,N
1583722595.9,286047005.5,Y
1583722615.7,286047003.2,P
1583722635.5,286047003.7,P
1583722655.4,286047002.6,N
1583722675.2,286046999.8,N
1583722695.0,286047002.2,N
1583722696.0,286047002.2,N
1583722715.8,286047000.2,N
1583722735.6,286047002.4,N
1583722755.5,286047000.4,N
1583722775.3,286046998.2,N
1583722795.1,286046999.0,N
